| time (UTC) | temp C | wind direction | speed KPH | gust KPH | rain 1hr cm | rain 24hr cm | rain mn cm | humidity % | barometer mb |
| 20260510071548 | 10 | 83 | 0.0 | 0.0 | 0.00 | 0.30 | 0.00 | 93 | 1010.9 |
| 20260510071043 | 10 | 83 | 0.0 | 0.0 | 0.00 | 0.30 | 0.00 | 93 | 1011.0 |
| 20260510070539 | 10 | 83 | 0.0 | 0.0 | 0.00 | 0.30 | 0.00 | 93 | 1011.1 |
| 20260510070041 | 10 | 83 | 0.0 | 0.0 | 0.00 | 0.30 | 0.00 | 93 | 1011.1 |
| 20260510065540 | 10 | 83 | 0.0 | 0.0 | 0.00 | 0.30 | 0.00 | 93 | 1011.3 |
| 20260510065039 | 10 | 83 | 0.0 | 0.0 | 0.00 | 0.30 | 0.00 | 93 | 1011.3 |
| 20260510064549 | 10 | 83 | 0.0 | 0.0 | 0.00 | 0.30 | 0.00 | 93 | 1011.3 |
| 20260510064037 | 10 | 83 | 0.0 | 0.0 | 0.00 | 0.30 | 0.00 | 93 | 1011.3 |
| 20260510063539 | 10 | 83 | 0.0 | 0.0 | 0.00 | 0.30 | 0.00 | 93 | 1011.4 |
| 20260510063038 | 10 | 80 | 0.0 | 0.0 | 0.00 | 0.30 | 0.00 | 93 | 1011.6 |
| 20260510062539 | 10 | 85 | 0.0 | 0.0 | 0.00 | 0.30 | 0.00 | 93 | 1011.8 |
| 20260510062037 | 10 | 314 | 0.0 | 3.2 | 0.00 | 0.30 | 0.00 | 93 | 1012.1 |
| 20260510061539 | 10 | 296 | 0.0 | 6.4 | 0.00 | 0.30 | 0.00 | 93 | 1012.0 |
| 20260510061036 | 10 | 346 | 0.0 | 6.4 | 0.00 | 0.30 | 0.00 | 92 | 1011.7 |
| 20260510060536 | 10 | 329 | 0.0 | 0.0 | 0.00 | 0.30 | 0.00 | 92 | 1011.4 |
| 20260510060038 | 10 | 22 | 0.0 | 0.0 | 0.00 | 0.30 | 0.00 | 92 | 1011.0 |
| 20260510055535 | 10 | 360 | 0.0 | 0.0 | 0.00 | 0.30 | 0.00 | 92 | 1011.1 |
| 20260510055035 | 10 | 360 | 0.0 | 0.0 | 0.00 | 0.30 | 0.00 | 92 | 1011.1 |
| 20260510054535 | 10 | 360 | 0.0 | 0.0 | 0.00 | 0.30 | 0.00 | 92 | 1011.2 |
| 20260510054035 | 10 | 360 | 0.0 | 0.0 | 0.00 | 0.30 | 0.00 | 92 | 1011.3 |
| 20260510053534 | 10 | 360 | 0.0 | 0.0 | 0.00 | 0.30 | 0.00 | 92 | 1011.5 |
| 20260510053034 | 10 | 360 | 0.0 | 0.0 | 0.00 | 0.30 | 0.00 | 92 | 1011.5 |
| 20260510052533 | 10 | 360 | 0.0 | 0.0 | 0.00 | 0.30 | 0.00 | 92 | 1011.5 |
| 20260510052033 | 10 | 360 | 0.0 | 0.0 | 0.00 | 0.30 | 0.00 | 92 | 1011.6 |
| 20260510051540 | 10 | 360 | 0.0 | 0.0 | 0.00 | 0.30 | 0.00 | 92 | 1011.6 |
| 20260510051032 | 10 | 65 | 0.0 | 0.0 | 0.00 | 0.30 | 0.00 | 92 | 1011.6 |
| 20260510050532 | 10 | 65 | 0.0 | 0.0 | 0.00 | 0.30 | 0.00 | 92 | 1011.5 |
| 20260510050038 | 10 | 67 | 0.0 | 0.0 | 0.00 | 0.30 | 0.00 | 92 | 1011.4 |
| 20260510045529 | 10 | 67 | 0.0 | 0.0 | 0.00 | 0.30 | 0.00 | 92 | 1011.1 |
| 20260510045029 | 10 | 68 | 0.0 | 0.0 | 0.00 | 0.30 | 0.00 | 92 | 1011.0 |
| 20260510044530 | 11 | 69 | 0.0 | 0.0 | 0.00 | 0.30 | 0.00 | 92 | 1010.9 |
| 20260510044027 | 11 | 69 | 0.0 | 0.0 | 0.00 | 0.30 | 0.00 | 92 | 1010.9 |
| 20260510043527 | 11 | 72 | 0.0 | 0.0 | 0.00 | 0.30 | 0.00 | 91 | 1011.0 |
| 20260510043026 | 11 | 72 | 0.0 | 0.0 | 0.00 | 0.30 | 0.00 | 91 | 1011.0 |
| 20260510042525 | 11 | 72 | 0.0 | 0.0 | 0.00 | 0.30 | 0.00 | 91 | 1010.9 |
| 20260510042026 | 11 | 82 | 0.0 | 0.0 | 0.00 | 0.30 | 0.00 | 91 | 1010.8 |
| 20260510041524 | 11 | 104 | 0.0 | 0.0 | 0.00 | 0.30 | 0.00 | 91 | 1010.9 |
| 20260510041024 | 11 | 104 | 0.0 | 0.0 | 0.00 | 0.30 | 0.30 | 91 | 1010.8 |
| 20260510040524 | 11 | 105 | 0.0 | 0.0 | 0.00 | 0.30 | 0.30 | 90 | 1010.9 |
| 20260510040024 | 11 | 105 | 0.0 | 0.0 | 0.00 | 0.30 | 0.30 | 90 | 1010.9 |
| 20260510035524 | 11 | 105 | 0.0 | 0.0 | 0.00 | 0.30 | 0.30 | 90 | 1010.8 |
| 20260510035024 | 11 | 105 | 0.0 | 0.0 | 0.00 | 0.30 | 0.30 | 90 | 1011.0 |
| 20260510034523 | 11 | 105 | 0.0 | 0.0 | 0.00 | 0.30 | 0.30 | 90 | 1010.9 |
| 20260510034026 | 11 | 109 | 0.0 | 0.0 | 0.00 | 0.30 | 0.30 | 90 | 1010.9 |
| 20260510033523 | 12 | 109 | 0.0 | 0.0 | 0.00 | 0.30 | 0.30 | 89 | 1010.9 |
| 20260510033025 | 12 | 109 | 0.0 | 0.0 | 0.00 | 0.30 | 0.30 | 90 | 1010.9 |
| 20260510032523 | 12 | 109 | 0.0 | 0.0 | 0.00 | 0.30 | 0.30 | 90 | 1011.0 |
| 20260510032023 | 12 | 109 | 0.0 | 0.0 | 0.00 | 0.30 | 0.30 | 89 | 1011.0 |
| 20260510031524 | 12 | 109 | 0.0 | 0.0 | 0.00 | 0.30 | 0.30 | 89 | 1011.0 |
| 20260510031023 | 12 | 110 | 0.0 | 0.0 | 0.00 | 0.30 | 0.30 | 89 | 1010.9 |
| 20260510030527 | 12 | 110 | 0.0 | 0.0 | 0.00 | 0.30 | 0.30 | 89 | 1010.8 |
| 20260510030023 | 12 | 111 | 0.0 | 0.0 | 0.00 | 0.30 | 0.30 | 89 | 1010.8 |
| 20260510025523 | 12 | 111 | 0.0 | 0.0 | 0.00 | 0.30 | 0.30 | 89 | 1010.9 |
| 20260510025025 | 12 | 111 | 0.0 | 0.0 | 0.00 | 0.30 | 0.30 | 88 | 1010.9 |
| 20260510024523 | 12 | 111 | 0.0 | 0.0 | 0.00 | 0.30 | 0.30 | 88 | 1010.8 |
| 20260510024023 | 12 | 111 | 0.0 | 0.0 | 0.00 | 0.30 | 0.30 | 87 | 1010.8 |
| 20260510023521 | 12 | 111 | 0.0 | 0.0 | 0.00 | 0.30 | 0.30 | 87 | 1010.8 |
| 20260510023021 | 12 | 111 | 0.0 | 0.0 | 0.00 | 0.30 | 0.30 | 87 | 1010.8 |
| 20260510022521 | 12 | 111 | 0.0 | 0.0 | 0.00 | 0.30 | 0.30 | 87 | 1010.7 |
| 20260510022021 | 12 | 111 | 0.0 | 0.0 | 0.00 | 0.30 | 0.30 | 87 | 1010.7 |
| 20260510021521 | 12 | 111 | 0.0 | 0.0 | 0.00 | 0.30 | 0.30 | 86 | 1010.8 |
| 20260510021022 | 13 | 111 | 0.0 | 0.0 | 0.00 | 0.30 | 0.30 | 86 | 1010.7 |
| 20260510020521 | 13 | 111 | 0.0 | 0.0 | 0.00 | 0.30 | 0.30 | 85 | 1010.7 |
| 20260510020021 | 13 | 111 | 0.0 | 0.0 | 0.00 | 0.30 | 0.30 | 86 | 1010.5 |
| 20260510015521 | 13 | 111 | 0.0 | 0.0 | 0.00 | 0.30 | 0.30 | 85 | 1010.4 |
| 20260510015020 | 13 | 112 | 0.0 | 0.0 | 0.00 | 0.30 | 0.30 | 85 | 1010.4 |
| 20260510014523 | 13 | 112 | 0.0 | 0.0 | 0.00 | 0.30 | 0.30 | 84 | 1010.4 |
| 20260510014020 | 13 | 111 | 0.0 | 0.0 | 0.00 | 0.30 | 0.30 | 84 | 1010.2 |
| 20260510013520 | 13 | 113 | 0.0 | 0.0 | 0.00 | 0.30 | 0.30 | 84 | 1010.2 |
| 20260510013020 | 13 | 114 | 0.0 | 0.0 | 0.00 | 0.30 | 0.30 | 83 | 1010.3 |
| 20260510012520 | 13 | 115 | 0.0 | 0.0 | 0.00 | 0.30 | 0.30 | 83 | 1010.1 |
| 20260510012020 | 14 | 115 | 0.0 | 0.0 | 0.00 | 0.30 | 0.30 | 82 | 1010.1 |
| 20260510011532 | 14 | 117 | 0.0 | 0.0 | 0.00 | 0.30 | 0.30 | 82 | 1010.1 |
| 20260510011019 | 14 | 120 | 0.0 | 0.0 | 0.00 | 0.30 | 0.30 | 83 | 1010.0 |
| 20260510010519 | 14 | 122 | 0.0 | 0.0 | 0.00 | 0.30 | 0.30 | 82 | 1010.0 |
| 20260510010026 | 14 | 122 | 0.0 | 0.0 | 0.00 | 0.30 | 0.30 | 82 | 1009.9 |
| 20260510005519 | 15 | 123 | 0.0 | 0.0 | 0.00 | 0.30 | 0.30 | 80 | 1009.8 |
| 20260510005020 | 15 | 123 | 0.0 | 0.0 | 0.00 | 0.30 | 0.30 | 79 | 1009.8 |
| 20260510004518 | 15 | 127 | 0.0 | 0.0 | 0.00 | 0.30 | 0.30 | 79 | 1009.7 |
| 20260510004022 | 15 | 132 | 0.0 | 0.0 | 0.00 | 0.30 | 0.30 | 78 | 1009.8 |
| 20260510003518 | 15 | 132 | 0.0 | 0.0 | 0.00 | 0.30 | 0.30 | 78 | 1009.8 |
| 20260510003018 | 15 | 132 | 0.0 | 0.0 | 0.00 | 0.30 | 0.30 | 78 | 1009.8 |
| 20260510002517 | 15 | 123 | 0.0 | 0.0 | 0.00 | 0.30 | 0.30 | 78 | 1009.8 |
| 20260510002017 | 15 | 122 | 0.0 | 0.0 | 0.00 | 0.30 | 0.30 | 78 | 1009.7 |
| 20260510001523 | 15 | 121 | 0.0 | 0.0 | 0.00 | 0.30 | 0.30 | 77 | 1009.6 |
| 20260510001018 | 15 | 121 | 0.0 | 0.0 | 0.00 | 0.30 | 0.30 | 77 | 1009.5 |
| 20260510000518 | 15 | 121 | 0.0 | 0.0 | 0.00 | 0.30 | 0.30 | 76 | 1009.3 |
| 20260510000017 | 16 | 121 | 0.0 | 0.0 | 0.00 | 0.30 | 0.30 | 76 | 1009.2 |
| 20260509235518 | 16 | 122 | 0.0 | 0.0 | 0.00 | 0.30 | 0.30 | 76 | 1009.3 |
| 20260509235017 | 16 | 126 | 0.0 | 0.0 | 0.00 | 0.30 | 0.30 | 76 | 1009.3 |
| 20260509234516 | 16 | 124 | 0.0 | 0.0 | 0.00 | 0.30 | 0.30 | 76 | 1009.3 |
| 20260509234016 | 16 | 130 | 0.0 | 0.0 | 0.00 | 0.30 | 0.30 | 76 | 1009.4 |
| 20260509233517 | 16 | 134 | 0.0 | 0.0 | 0.00 | 0.30 | 0.30 | 75 | 1009.3 |
| 20260509233015 | 16 | 142 | 0.0 | 0.0 | 0.00 | 0.30 | 0.30 | 75 | 1009.3 |
| 20260509232516 | 16 | 150 | 0.0 | 0.0 | 0.00 | 0.30 | 0.30 | 75 | 1009.2 |
| 20260509232016 | 16 | 155 | 0.0 | 0.0 | 0.00 | 0.30 | 0.30 | 75 | 1009.2 |
| 20260509231526 | 16 | 147 | 0.0 | 4.8 | 0.00 | 0.30 | 0.30 | 75 | 1009.2 |
| 20260509231014 | 16 | 154 | 0.0 | 11.3 | 0.00 | 0.30 | 0.30 | 74 | 1009.2 |
| 20260509230515 | 16 | 155 | 3.2 | 11.3 | 0.00 | 0.30 | 0.30 | 74 | 1009.2 |
| 20260509230015 | 16 | 144 | 1.6 | 8.0 | 0.00 | 0.30 | 0.30 | 74 | 1009.2 |
| 20260509225517 | 16 | 138 | 1.6 | 6.4 | 0.00 | 0.30 | 0.30 | 74 | 1009.3 |
| 20260509225014 | 16 | 154 | 0.0 | 9.7 | 0.00 | 0.30 | 0.30 | 75 | 1009.2 |
| 20260509224514 | 16 | 164 | 1.6 | 9.7 | 0.00 | 0.30 | 0.30 | 74 | 1009.3 |
| 20260509224014 | 16 | 148 | 3.2 | 8.0 | 0.00 | 0.30 | 0.30 | 74 | 1009.2 |
| 20260509223513 | 16 | 192 | 0.0 | 3.2 | 0.00 | 0.30 | 0.30 | 74 | 1009.3 |
| 20260509223015 | 16 | 192 | 0.0 | 6.4 | 0.00 | 0.30 | 0.30 | 74 | 1009.3 |
| 20260509222511 | 16 | 178 | 3.2 | 8.0 | 0.00 | 0.30 | 0.30 | 73 | 1009.3 |
| 20260509222011 | 16 | 182 | 0.0 | 4.8 | 0.00 | 0.30 | 0.30 | 74 | 1009.3 |
| 20260509221526 | 16 | 144 | 0.0 | 8.0 | 0.00 | 0.30 | 0.30 | 75 | 1009.3 |
| 20260509221011 | 16 | 143 | 0.0 | 8.0 | 0.00 | 0.30 | 0.30 | 75 | 1009.2 |
| 20260509220510 | 16 | 113 | 1.6 | 9.7 | 0.00 | 0.30 | 0.30 | 75 | 1009.3 |
| 20260509220012 | 16 | 164 | 0.0 | 3.2 | 0.00 | 0.30 | 0.30 | 76 | 1009.3 |
| 20260509215509 | 16 | 171 | 0.0 | 4.8 | 0.00 | 0.30 | 0.30 | 75 | 1009.3 |
| 20260509215008 | 16 | 170 | 0.0 | 4.8 | 0.00 | 0.30 | 0.30 | 76 | 1009.5 |
| 20260509214507 | 15 | 182 | 0.0 | 4.8 | 0.00 | 0.30 | 0.30 | 77 | 1009.6 |
| 20260509214006 | 15 | 185 | 0.0 | 6.4 | 0.00 | 0.30 | 0.30 | 78 | 1009.6 |
| 20260509213506 | 15 | 185 | 3.2 | 6.4 | 0.00 | 0.30 | 0.30 | 77 | 1009.6 |
| 20260509213006 | 15 | 152 | 1.6 | 6.4 | 0.00 | 0.30 | 0.30 | 79 | 1009.6 |
| 20260509212505 | 15 | 127 | 0.0 | 6.4 | 0.00 | 0.30 | 0.30 | 79 | 1009.7 |
| 20260509212007 | 15 | 98 | 0.0 | 0.0 | 0.00 | 0.30 | 0.30 | 79 | 1009.7 |
| 20260509211504 | 15 | 106 | 0.0 | 0.0 | 0.00 | 0.30 | 0.30 | 81 | 1009.8 |
| 20260509211002 | 15 | 63 | 0.0 | 0.0 | 0.00 | 0.30 | 0.30 | 81 | 1009.9 |
| 20260509210502 | 15 | 62 | 0.0 | 0.0 | 0.00 | 0.30 | 0.30 | 81 | 1009.9 |
| 20260509210002 | 15 | 21 | 0.0 | 0.0 | 0.00 | 0.30 | 0.30 | 82 | 1010.0 |
| 20260509205500 | 15 | 14 | 0.0 | 0.0 | 0.00 | 0.30 | 0.30 | 81 | 1010.1 |
| 20260509205002 | 14 | 14 | 0.0 | 0.0 | 0.00 | 0.30 | 0.30 | 81 | 1010.1 |
| 20260509204603 | 15 | 12 | 0.0 | 0.0 | 0.00 | 0.30 | 0.30 | 81 | 1010.2 |
| 20260509204101 | 15 | 17 | 0.0 | 0.0 | 0.00 | 0.30 | 0.30 | 80 | 1010.3 |
| 20260509203601 | 15 | 40 | 0.0 | 0.0 | 0.00 | 0.30 | 0.30 | 81 | 1010.3 |
| 20260509203101 | 14 | 51 | 0.0 | 0.0 | 0.00 | 0.30 | 0.30 | 81 | 1010.3 |
| 20260509202603 | 14 | 53 | 0.0 | 0.0 | 0.00 | 0.30 | 0.30 | 81 | 1010.2 |
| 20260509202100 | 14 | 53 | 0.0 | 0.0 | 0.00 | 0.30 | 0.30 | 81 | 1010.1 |
| 20260509201600 | 14 | 62 | 0.0 | 0.0 | 0.00 | 0.30 | 0.30 | 81 | 1009.8 |
| 20260509201059 | 14 | 71 | 0.0 | 0.0 | 0.00 | 0.30 | 0.30 | 81 | 1009.7 |
| 20260509200558 | 15 | 58 | 0.0 | 0.0 | 0.00 | 0.30 | 0.30 | 81 | 1009.9 |
| 20260509200106 | 15 | 73 | 0.0 | 0.0 | 0.00 | 0.30 | 0.30 | 80 | 1010.0 |
| 20260509195559 | 15 | 136 | 0.0 | 0.0 | 0.00 | 0.30 | 0.30 | 80 | 1010.2 |
| 20260509195058 | 15 | 141 | 0.0 | 0.0 | 0.00 | 0.30 | 0.30 | 80 | 1010.3 |
| 20260509194557 | 15 | 144 | 0.0 | 0.0 | 0.00 | 0.30 | 0.30 | 79 | 1010.3 |
| 20260509194055 | 15 | 145 | 0.0 | 0.0 | 0.00 | 0.30 | 0.30 | 80 | 1010.3 |
| 20260509193559 | 15 | 145 | 0.0 | 0.0 | 0.00 | 0.30 | 0.30 | 80 | 1010.3 |
| 20260509193108 | 15 | 145 | 0.0 | 0.0 | 0.00 | 0.30 | 0.30 | 80 | 1010.3 |
| 20260509192553 | 15 | 145 | 0.0 | 0.0 | 0.00 | 0.30 | 0.30 | 80 | 1010.5 |
| 20260509192057 | 15 | 145 | 0.0 | 0.0 | 0.00 | 0.30 | 0.30 | 82 | 1010.6 |
| 20260509191611 | 14 | 143 | 0.0 | 0.0 | 0.00 | 0.30 | 0.30 | 81 | 1010.6 |
| 20260509191053 | 14 | 142 | 0.0 | 0.0 | 0.00 | 0.30 | 0.30 | 81 | 1010.7 |
| 20260509190551 | 14 | 205 | 0.0 | 0.0 | 0.00 | 0.30 | 0.30 | 85 | 1010.8 |
| 20260509190105 | 13 | 217 | 0.0 | 4.8 | 0.00 | 0.30 | 0.30 | 83 | 1010.8 |
| 20260509185549 | 13 | 216 | 0.0 | 4.8 | 0.00 | 0.30 | 0.30 | 83 | 1011.0 |
| 20260509185048 | 13 | 164 | 0.0 | 0.0 | 0.00 | 0.30 | 0.30 | 85 | 1011.1 |
| 20260509184549 | 13 | 157 | 0.0 | 0.0 | 0.00 | 0.30 | 0.30 | 85 | 1011.3 |
| 20260509184048 | 13 | 155 | 0.0 | 0.0 | 0.00 | 0.30 | 0.30 | 87 | 1011.1 |
| 20260509183548 | 13 | 177 | 0.0 | 0.0 | 0.00 | 0.30 | 0.30 | 86 | 1011.1 |
| 20260509183047 | 13 | 156 | 0.0 | 0.0 | 0.00 | 0.30 | 0.30 | 88 | 1011.0 |
| 20260509182546 | 13 | 144 | 0.0 | 0.0 | 0.00 | 0.30 | 0.30 | 87 | 1011.0 |
| 20260509182045 | 13 | 138 | 0.0 | 0.0 | 0.00 | 0.30 | 0.30 | 89 | 1011.0 |
| 20260509181544 | 12 | 122 | 0.0 | 0.0 | 0.00 | 0.30 | 0.30 | 89 | 1011.0 |
| 20260509181044 | 12 | 113 | 0.0 | 0.0 | 0.00 | 0.30 | 0.30 | 89 | 1011.0 |
| 20260509180544 | 12 | 120 | 0.0 | 0.0 | 0.00 | 0.30 | 0.30 | 89 | 1011.0 |
| 20260509180043 | 12 | 144 | 0.0 | 0.0 | 0.00 | 0.30 | 0.30 | 89 | 1011.1 |
| 20260509175542 | 12 | 179 | 0.0 | 0.0 | 0.00 | 0.30 | 0.30 | 89 | 1011.2 |
| 20260509175043 | 12 | 183 | 0.0 | 0.0 | 0.00 | 0.30 | 0.30 | 89 | 1011.2 |
| 20260509174543 | 12 | 188 | 0.0 | 0.0 | 0.00 | 0.30 | 0.30 | 89 | 1011.3 |
| 20260509174042 | 12 | 188 | 0.0 | 0.0 | 0.00 | 0.30 | 0.30 | 89 | 1011.4 |
| 20260509173542 | 12 | 188 | 0.0 | 0.0 | 0.00 | 0.30 | 0.30 | 89 | 1011.5 |
| 20260509173054 | 12 | 186 | 0.0 | 0.0 | 0.00 | 0.30 | 0.30 | 89 | 1011.5 |
| 20260509172544 | 12 | 178 | 0.0 | 0.0 | 0.00 | 0.30 | 0.30 | 90 | 1011.6 |
| 20260509172041 | 11 | 154 | 0.0 | 0.0 | 0.00 | 0.30 | 0.30 | 90 | 1011.6 |
| 20260509171551 | 11 | 196 | 0.0 | 1.6 | 0.03 | 0.30 | 0.30 | 90 | 1011.7 |
| 20260509171041 | 11 | 200 | 0.0 | 1.6 | 0.03 | 0.30 | 0.30 | 90 | 1011.9 |
| 20260509170541 | 11 | 156 | 0.0 | 12.9 | 0.03 | 0.30 | 0.30 | 90 | 1011.8 |
| 20260509170044 | 11 | 174 | 0.0 | 12.9 | 0.03 | 0.30 | 0.30 | 90 | 1011.9 |
| 20260509165540 | 11 | 191 | 0.0 | 0.0 | 0.05 | 0.30 | 0.30 | 91 | 1011.7 |
| 20260509165041 | 11 | 200 | 0.0 | 0.0 | 0.08 | 0.30 | 0.30 | 91 | 1011.7 |
| 20260509164548 | 11 | 130 | 0.0 | 0.0 | 0.10 | 0.30 | 0.30 | 91 | 1011.6 |
| 20260509164042 | 11 | 122 | 0.0 | 0.0 | 0.13 | 0.30 | 0.30 | 90 | 1011.6 |
| 20260509163539 | 11 | 84 | 0.0 | 0.0 | 0.15 | 0.30 | 0.30 | 90 | 1011.4 |
| 20260509163048 | 11 | 84 | 0.0 | 0.0 | 0.18 | 0.30 | 0.30 | 90 | 1011.3 |
| 20260509162543 | 11 | 64 | 0.0 | 0.0 | 0.23 | 0.30 | 0.30 | 90 | 1011.4 |
| 20260509162039 | 11 | 59 | 0.0 | 0.0 | 0.28 | 0.30 | 0.30 | 90 | 1011.4 |
| 20260509161540 | 11 | 50 | 0.0 | 0.0 | 0.28 | 0.28 | 0.28 | 90 | 1011.2 |
| 20260509161039 | 11 | 49 | 0.0 | 0.0 | 0.28 | 0.28 | 0.28 | 89 | 1011.1 |
| 20260509160539 | 11 | 30 | 0.0 | 0.0 | 0.28 | 0.28 | 0.28 | 89 | 1011.2 |
| 20260509160039 | 11 | 27 | 0.0 | 0.0 | 0.28 | 0.28 | 0.28 | 89 | 1011.3 |
| 20260509155538 | 11 | 5 | 0.0 | 0.0 | 0.25 | 0.25 | 0.25 | 88 | 1011.5 |
| 20260509155038 | 11 | 206 | 0.0 | 0.0 | 0.23 | 0.23 | 0.23 | 87 | 1011.7 |
| 20260509154540 | 11 | 211 | 0.0 | 0.0 | 0.18 | 0.18 | 0.18 | 87 | 1012.0 |
| 20260509154037 | 11 | 211 | 0.0 | 0.0 | 0.18 | 0.18 | 0.18 | 86 | 1012.2 |
| 20260509153540 | 11 | 211 | 0.0 | 0.0 | 0.15 | 0.15 | 0.15 | 86 | 1012.4 |
| 20260509153039 | 11 | 213 | 0.0 | 0.0 | 0.13 | 0.13 | 0.13 | 86 | 1012.5 |
| 20260509152536 | 11 | 215 | 0.0 | 0.0 | 0.05 | 0.05 | 0.05 | 85 | 1012.6 |
| 20260509152038 | 11 | 219 | 0.0 | 0.0 | 0.03 | 0.03 | 0.03 | 85 | 1012.6 |
| 20260509151536 | 11 | 207 | 0.0 | 0.0 | 0.00 | 0.00 | 0.00 | 85 | 1012.5 |
| 20260509151035 | 12 | 200 | 0.0 | 0.0 | 0.00 | 0.00 | 0.00 | 84 | 1012.4 |
| 20260509150536 | 12 | 198 | 0.0 | 9.7 | 0.00 | 0.00 | 0.00 | 84 | 1012.3 |
| 20260509150034 | 12 | 202 | 0.0 | 9.7 | 0.00 | 0.00 | 0.00 | 83 | 1012.3 |
| 20260509145536 | 12 | 186 | 0.0 | 1.6 | 0.00 | 0.00 | 0.00 | 83 | 1012.3 |
| 20260509145034 | 12 | 167 | 0.0 | 1.6 | 0.00 | 0.00 | 0.00 | 82 | 1012.2 |
| 20260509144537 | 12 | 199 | 0.0 | 0.0 | 0.00 | 0.00 | 0.00 | 81 | 1012.2 |
| 20260509144033 | 12 | 212 | 0.0 | 0.0 | 0.00 | 0.00 | 0.00 | 81 | 1012.2 |
| 20260509143533 | 12 | 214 | 0.0 | 0.0 | 0.00 | 0.00 | 0.00 | 80 | 1012.1 |
| 20260509143033 | 12 | 217 | 0.0 | 0.0 | 0.00 | 0.00 | 0.00 | 79 | 1012.1 |
| 20260509142532 | 12 | 223 | 0.0 | 0.0 | 0.00 | 0.00 | 0.00 | 79 | 1012.0 |
| 20260509142032 | 12 | 232 | 0.0 | 0.0 | 0.00 | 0.00 | 0.00 | 80 | 1012.0 |
| 20260509141536 | 12 | 176 | 0.0 | 0.0 | 0.00 | 0.00 | 0.00 | 81 | 1012.0 |
| 20260509141032 | 12 | 177 | 0.0 | 0.0 | 0.00 | 0.00 | 0.00 | 82 | 1012.0 |
| 20260509140532 | 12 | 179 | 0.0 | 0.0 | 0.00 | 0.00 | 0.00 | 81 | 1011.9 |
| 20260509140036 | 12 | 182 | 0.0 | 0.0 | 0.00 | 0.00 | 0.00 | 82 | 1011.8 |
| 20260509135532 | 12 | 192 | 0.0 | 0.0 | 0.00 | 0.00 | 0.00 | 81 | 1011.8 |
| 20260509135034 | 12 | 184 | 0.0 | 0.0 | 0.00 | 0.00 | 0.00 | 83 | 1011.8 |
| 20260509134547 | 11 | 165 | 0.0 | 0.0 | 0.00 | 0.00 | 0.00 | 84 | 1011.8 |
| 20260509134035 | 11 | 163 | 0.0 | 0.0 | 0.00 | 0.00 | 0.00 | 84 | 1011.6 |
| 20260509133534 | 11 | 165 | 0.0 | 0.0 | 0.00 | 0.00 | 0.00 | 84 | 1011.8 |
| 20260509133035 | 11 | 167 | 0.0 | 0.0 | 0.00 | 0.00 | 0.00 | 84 | 1011.9 |
| 20260509132531 | 11 | 167 | 0.0 | 0.0 | 0.00 | 0.00 | 0.00 | 84 | 1011.8 |
| 20260509132033 | 11 | 169 | 0.0 | 0.0 | 0.00 | 0.00 | 0.00 | 84 | 1011.8 |
| 20260509131551 | 11 | 175 | 0.0 | 0.0 | 0.00 | 0.00 | 0.00 | 84 | 1011.7 |
| 20260509131030 | 11 | 180 | 0.0 | 0.0 | 0.00 | 0.00 | 0.00 | 85 | 1011.7 |
| 20260509130533 | 11 | 61 | 0.0 | 0.0 | 0.00 | 0.00 | 0.00 | 84 | 1011.4 |
| 20260509130043 | 11 | 49 | 0.0 | 0.0 | 0.00 | 0.00 | 0.00 | 84 | 1011.2 |
| 20260509125530 | 11 | 109 | 0.0 | 0.0 | 0.00 | 0.00 | 0.00 | 84 | 1011.5 |
| 20260509125031 | 11 | 112 | 0.0 | 0.0 | 0.00 | 0.00 | 0.00 | 83 | 1011.5 |
| 20260509124539 | 11 | 51 | 0.0 | 0.0 | 0.00 | 0.00 | 0.00 | 83 | 1011.3 |
| 20260509124029 | 11 | 355 | 0.0 | 0.0 | 0.00 | 0.00 | 0.00 | 82 | 1011.3 |
| 20260509123529 | 11 | 355 | 0.0 | 0.0 | 0.00 | 0.00 | 0.00 | 82 | 1011.4 |
| 20260509123031 | 11 | 360 | 0.0 | 0.0 | 0.00 | 0.00 | 0.00 | 82 | 1011.5 |
| 20260509122529 | 11 | 9 | 0.0 | 0.0 | 0.00 | 0.00 | 0.00 | 81 | 1011.5 |
| 20260509122027 | 11 | 9 | 0.0 | 0.0 | 0.00 | 0.00 | 0.00 | 82 | 1011.7 |
| 20260509121531 | 11 | 10 | 0.0 | 0.0 | 0.00 | 0.00 | 0.00 | 82 | 1011.6 |
| 20260509121028 | 11 | 13 | 0.0 | 0.0 | 0.00 | 0.00 | 0.00 | 82 | 1011.5 |
| 20260509120530 | 11 | 24 | 0.0 | 0.0 | 0.00 | 0.00 | 0.00 | 81 | 1011.6 |
| 20260509120028 | 11 | 24 | 0.0 | 0.0 | 0.00 | 0.00 | 0.00 | 81 | 1011.5 |
| 20260509115527 | 11 | 22 | 0.0 | 0.0 | 0.00 | 0.00 | 0.00 | 82 | 1011.5 |
| 20260509115027 | 11 | 22 | 0.0 | 0.0 | 0.00 | 0.00 | 0.00 | 81 | 1011.4 |
| 20260509114527 | 11 | 42 | 0.0 | 0.0 | 0.00 | 0.00 | 0.00 | 81 | 1011.3 |
| 20260509114026 | 11 | 48 | 0.0 | 0.0 | 0.00 | 0.00 | 0.00 | 81 | 1011.2 |
| 20260509113528 | 11 | 48 | 0.0 | 0.0 | 0.00 | 0.00 | 0.00 | 81 | 1011.2 |
| 20260509113026 | 11 | 48 | 0.0 | 0.0 | 0.00 | 0.00 | 0.00 | 81 | 1011.2 |
| 20260509112525 | 11 | 48 | 0.0 | 0.0 | 0.00 | 0.00 | 0.00 | 81 | 1011.2 |
| 20260509112025 | 11 | 48 | 0.0 | 0.0 | 0.00 | 0.00 | 0.00 | 81 | 1011.2 |
| 20260509111526 | 11 | 48 | 0.0 | 0.0 | 0.00 | 0.00 | 0.00 | 81 | 1011.3 |
| 20260509111026 | 10 | 48 | 0.0 | 0.0 | 0.00 | 0.00 | 0.00 | 81 | 1011.3 |
| 20260509110528 | 10 | 48 | 0.0 | 0.0 | 0.00 | 0.00 | 0.00 | 81 | 1011.2 |
| 20260509110027 | 10 | 48 | 0.0 | 0.0 | 0.00 | 0.00 | 0.00 | 81 | 1011.0 |
| 20260509105525 | 10 | 47 | 0.0 | 0.0 | 0.00 | 0.00 | 0.00 | 80 | 1011.1 |
| 20260509105026 | 10 | 47 | 0.0 | 0.0 | 0.00 | 0.00 | 0.00 | 80 | 1011.0 |
| 20260509104524 | 10 | 47 | 0.0 | 0.0 | 0.00 | 0.00 | 0.00 | 80 | 1011.1 |
| 20260509104025 | 10 | 47 | 0.0 | 0.0 | 0.00 | 0.00 | 0.00 | 80 | 1011.0 |
| 20260509103523 | 10 | 47 | 0.0 | 0.0 | 0.00 | 0.00 | 0.00 | 80 | 1011.0 |
| 20260509103028 | 10 | 47 | 0.0 | 0.0 | 0.00 | 0.00 | 0.00 | 80 | 1010.9 |
| 20260509102527 | 10 | 47 | 0.0 | 0.0 | 0.00 | 0.00 | 0.00 | 80 | 1010.9 |
| 20260509102023 | 10 | 47 | 0.0 | 0.0 | 0.00 | 0.00 | 0.00 | 80 | 1010.8 |
| 20260509101524 | 10 | 47 | 0.0 | 0.0 | 0.00 | 0.00 | 0.00 | 79 | 1010.9 |
| 20260509101025 | 10 | 47 | 0.0 | 0.0 | 0.00 | 0.00 | 0.00 | 79 | 1010.9 |
| 20260509100525 | 11 | 47 | 0.0 | 0.0 | 0.00 | 0.00 | 0.00 | 79 | 1010.9 |
| 20260509100022 | 11 | 47 | 0.0 | 0.0 | 0.00 | 0.00 | 0.00 | 79 | 1010.8 |
| 20260509095521 | 11 | 47 | 0.0 | 0.0 | 0.00 | 0.00 | 0.00 | 79 | 1010.8 |
| 20260509095022 | 11 | 47 | 0.0 | 0.0 | 0.00 | 0.00 | 0.00 | 78 | 1010.7 |
| 20260509094521 | 11 | 52 | 0.0 | 0.0 | 0.00 | 0.00 | 0.00 | 78 | 1010.6 |
| 20260509094019 | 11 | 51 | 0.0 | 0.0 | 0.00 | 0.00 | 0.00 | 78 | 1010.7 |
| 20260509093519 | 11 | 360 | 0.0 | 0.0 | 0.00 | 0.00 | 0.00 | 77 | 1010.9 |
| 20260509093025 | 11 | 74 | 0.0 | 0.0 | 0.00 | 0.00 | 0.00 | 77 | 1010.9 |
| 20260509092518 | 11 | 74 | 0.0 | 0.0 | 0.00 | 0.00 | 0.00 | 77 | 1011.0 |
| 20260509092018 | 11 | 74 | 0.0 | 0.0 | 0.00 | 0.00 | 0.00 | 78 | 1011.0 |
| 20260509091518 | 11 | 74 | 0.0 | 0.0 | 0.00 | 0.00 | 0.00 | 78 | 1010.9 |
| 20260509091019 | 11 | 74 | 0.0 | 0.0 | 0.00 | 0.00 | 0.00 | 77 | 1011.0 |
| 20260509090518 | 11 | 74 | 0.0 | 0.0 | 0.00 | 0.00 | 0.00 | 77 | 1010.9 |
| 20260509090016 | 11 | 72 | 0.0 | 0.0 | 0.00 | 0.00 | 0.00 | 77 | 1010.9 |
| 20260509085517 | 11 | 74 | 0.0 | 0.0 | 0.00 | 0.00 | 0.00 | 77 | 1011.0 |
| 20260509085016 | 11 | 80 | 0.0 | 0.0 | 0.00 | 0.00 | 0.00 | 77 | 1011.0 |
| 20260509084516 | 11 | 80 | 0.0 | 0.0 | 0.00 | 0.00 | 0.00 | 77 | 1011.0 |
| 20260509084015 | 11 | 69 | 0.0 | 0.0 | 0.00 | 0.00 | 0.00 | 77 | 1011.1 |
| 20260509083520 | 11 | 68 | 0.0 | 0.0 | 0.00 | 0.00 | 0.00 | 76 | 1011.1 |
| 20260509083015 | 11 | 79 | 0.0 | 0.0 | 0.00 | 0.00 | 0.00 | 77 | 1011.1 |
| 20260509082514 | 11 | 78 | 0.0 | 0.0 | 0.00 | 0.00 | 0.00 | 76 | 1011.1 |
| 20260509082015 | 11 | 78 | 0.0 | 0.0 | 0.00 | 0.00 | 0.00 | 76 | 1011.2 |
| 20260509081524 | 11 | 75 | 0.0 | 0.0 | 0.00 | 0.00 | 0.00 | 76 | 1011.2 |
| 20260509081019 | 11 | 61 | 0.0 | 0.0 | 0.00 | 0.00 | 0.00 | 77 | 1011.3 |
| 20260509080512 | 11 | 59 | 0.0 | 0.0 | 0.00 | 0.00 | 0.00 | 77 | 1011.3 |
| 20260509080012 | 11 | 59 | 0.0 | 0.0 | 0.00 | 0.00 | 0.00 | 76 | 1011.4 |
| 20260509075515 | 11 | 59 | 0.0 | 0.0 | 0.00 | 0.00 | 0.00 | 76 | 1011.4 |
| 20260509075012 | 11 | 60 | 0.0 | 0.0 | 0.00 | 0.00 | 0.00 | 76 | 1011.4 |
| 20260509074512 | 11 | 59 | 0.0 | 0.0 | 0.00 | 0.00 | 0.00 | 76 | 1011.3 |
| 20260509074010 | 11 | 58 | 0.0 | 0.0 | 0.00 | 0.00 | 0.00 | 76 | 1011.3 |
| 20260509073510 | 11 | 57 | 0.0 | 0.0 | 0.00 | 0.00 | 0.00 | 76 | 1011.3 |
| 20260509073010 | 11 | 44 | 0.0 | 0.0 | 0.00 | 0.00 | 0.00 | 76 | 1011.4 |
| 20260509072515 | 11 | 44 | 0.0 | 0.0 | 0.00 | 0.00 | 0.00 | 76 | 1011.5 |
| 20260509072013 | 11 | 44 | 0.0 | 0.0 | 0.00 | 0.00 | 0.00 | 75 | 1011.5 |